Location: *
(46.1833°N, 22.7667°E)
Time: 01:46:41
(UTC+00:00)

Meteor 2-15 - Pass Details

Date: 17 September 2019
Orbit: 936 x 956 km, 82.5° (Epoch: 14 October)

Event Time Altitude Azimuth Distance (km) Brightness Sun altitude
Rises 17:25:15 0° 181° (S) 3,614 7.4 -9.0°
Reaches altitude 10° 17:27:43 10° 180° (S) 2,674 6.7 -9.4°
Maximum altitude 17:33:50 76° 96° (E) 988 4.4 -10.5°
Drops below altitude 10° 17:40:00 10° 12° (NNE) 2,696 6.9 -11.5°
Sets 17:42:30 0° 11° (N) 3,646 7.6 -11.9°
